Address 0x6f78edb81c80a62cafb51a60a1ae7454e7df566a 5

 
Ad
Ad
Txn Hash Method
Block
From
To
Value [Txn Fee]
0xa18a513adde63fb5490b8e9ee0933a89fc50d8df8cf6c5d499f695077978a29fExecute Meta Tra...204885312021-10-22 13:20:183 mins ago0x6f78edb81c80a62cafb51a60a1ae7454e7df566aOUT 0x7ceb23fd6bc0add59e62ac25578270cff1b9f6190 MATIC0.00415355
0xff546cf38c10979c88bad9a2b12afc7e432208d959cbf1580bd23be4fcb125ceExecute Meta Tra...204883982021-10-22 13:13:3610 mins ago0x6f78edb81c80a62cafb51a60a1ae7454e7df566aOUT 0x7ceb23fd6bc0add59e62ac25578270cff1b9f6190 MATIC0.00329915
0x59d99cba5cc2dea69c273c98438cbae9ef84abad04801060b1134c44d9da30adExecute Meta Tra...204871842021-10-22 12:25:3858 mins ago0x6f78edb81c80a62cafb51a60a1ae7454e7df566aOUT 0xb6509cbd9e2d1cec787a7357eb1578b86a0c702d0 MATIC0.0044712
0xe707a439a7ded845f529c9b8c892a6dac46e441e28361f4c72548296d849da2eExecute Meta Tra...204857682021-10-22 11:27:431 hr 56 mins ago0x6f78edb81c80a62cafb51a60a1ae7454e7df566aOUT 0x7ceb23fd6bc0add59e62ac25578270cff1b9f6190 MATIC0.00415415
0x4ebe1caceb695ebba721de0289b9a2683e93b58a4ded3f835968634ea610a1f8Execute Meta Tra...204839662021-10-22 10:19:093 hrs 4 mins ago0x6f78edb81c80a62cafb51a60a1ae7454e7df566aOUT 0x1e292d4e2d9afc4d29ca184b391e418b690283470 MATIC0.0035401
0x881a12cdc8f634a0f222c50d11da11707b43b87dbc3e81a2feab5ef40612b5a5Execute Meta Tra...204838422021-10-22 10:12:513 hrs 11 mins ago0x6f78edb81c80a62cafb51a60a1ae7454e7df566aOUT 0x7ceb23fd6bc0add59e62ac25578270cff1b9f6190 MATIC0.00329915
0xf3237be5d260c2c6dafce392e6fe937cf21e16165a84847c94b150c4050b72e7Execute Meta Tra...204824982021-10-22 9:17:474 hrs 6 mins ago0x6f78edb81c80a62cafb51a60a1ae7454e7df566aOUT 0x7ceb23fd6bc0add59e62ac25578270cff1b9f6190 MATIC0.00329915
0x40758bcafd5c1237a23478e2c591d7180db6ace5c308b9fe482c80a64f8b9a8eExecute Meta Tra...204823372021-10-22 9:10:054 hrs 14 mins ago0x6f78edb81c80a62cafb51a60a1ae7454e7df566aOUT 0xef0a1a0195547a75b65995afcb17525b5c04632a0 MATIC0.00219
0xa3df1ff6ac38ccaae565a9cfbc6da48c7ea730079ce484b7c32043c9387f4f82Execute Meta Tra...204823162021-10-22 9:09:234 hrs 14 mins ago0x6f78edb81c80a62cafb51a60a1ae7454e7df566aOUT 0xef0a1a0195547a75b65995afcb17525b5c04632a0 MATIC0.0021897
0x297c866863c205db5df54d76a0e1c1382be4fc902484983c93a4589263b6cf65Execute Meta Tra...204822172021-10-22 9:05:574 hrs 18 mins ago0x6f78edb81c80a62cafb51a60a1ae7454e7df566aOUT 0xef0a1a0195547a75b65995afcb17525b5c04632a0 MATIC0.0021897
0xbda1f60005a4205a1122cd3af9ec5b63a95c3e405c019f61e70b716fe9b3cfa9Execute Meta Tra...204809002021-10-22 8:11:525 hrs 12 mins ago0x6f78edb81c80a62cafb51a60a1ae7454e7df566aOUT 0x7ceb23fd6bc0add59e62ac25578270cff1b9f6190 MATIC0.00329915
0x9b91bd73bff9720b41b97a3bcf0982f3825153f80a8c4d9f45a2352f93acc856Execute Meta Tra...204763522021-10-22 5:09:318 hrs 14 mins ago0x6f78edb81c80a62cafb51a60a1ae7454e7df566aOUT 0x7ceb23fd6bc0add59e62ac25578270cff1b9f6190 MATIC0.00415415
0x5e7c90a7ca43351ea3bd2199eea3b9ec150b65de34f7f8a8069f70b39b4ed8cfExecute Meta Tra...204738952021-10-22 3:32:119 hrs 51 mins ago0x6f78edb81c80a62cafb51a60a1ae7454e7df566aOUT 0xb6509cbd9e2d1cec787a7357eb1578b86a0c702d0 MATIC0.0044712
0xd3814f42e1dba7b86b8093a27aa7a04afb05cef341d1680777074e9433ebfabeExecute Meta Tra...204737092021-10-22 3:25:119 hrs 58 mins ago0x6f78edb81c80a62cafb51a60a1ae7454e7df566aOUT 0x7ceb23fd6bc0add59e62ac25578270cff1b9f6190 MATIC0.00415415
0x7d8991e54aa38056e3d3ec85c03225f183168df5ee597efb4855302fbb0d2831Execute Meta Tra...204687252021-10-22 0:00:1913 hrs 23 mins ago0x6f78edb81c80a62cafb51a60a1ae7454e7df566aOUT 0x1e292d4e2d9afc4d29ca184b391e418b690283470 MATIC0.0052495
0x52111db4088455d0c273f99340ef6de55ba1f5557e70b511532f5482f2b5a185Execute Meta Tra...204684512021-10-21 23:50:5513 hrs 33 mins ago0x6f78edb81c80a62cafb51a60a1ae7454e7df566aOUT 0x7ceb23fd6bc0add59e62ac25578270cff1b9f6190 MATIC0.00415415
0xb895c5fd2422c79f1669de1c1d76802e3f27ea84f840789e228b02887b2c3608Execute Meta Tra...204675612021-10-21 23:13:5514 hrs 10 mins ago0x6f78edb81c80a62cafb51a60a1ae7454e7df566aOUT 0x7ceb23fd6bc0add59e62ac25578270cff1b9f6190 MATIC0.00415415
0x0827b508a440168f83cc314dda0fe7daea0835c8cf2ce1c0329464c0e97c4e96Execute Meta Tra...204673952021-10-21 23:08:1514 hrs 15 mins ago0x6f78edb81c80a62cafb51a60a1ae7454e7df566aOUT 0xb6509cbd9e2d1cec787a7357eb1578b86a0c702d0 MATIC0.0044712
0x699f0b130e3e49668455be54ec53671e39b9eac5d871634120192c066ca8922fExecute Meta Tra...204661642021-10-21 22:18:4515 hrs 5 mins ago0x6f78edb81c80a62cafb51a60a1ae7454e7df566aOUT 0xb6509cbd9e2d1cec787a7357eb1578b86a0c702d0 MATIC0.0044712
0x55f6ee28fdcddc6c1060b38b9eb084b244c27d553bb90a46e871283f1dbd7f8aExecute Meta Tra...204629432021-10-21 20:06:2117 hrs 17 mins ago0x6f78edb81c80a62cafb51a60a1ae7454e7df566aOUT 0xb6509cbd9e2d1cec787a7357eb1578b86a0c702d0 MATIC0.0044712
0x3478960eaba475a938c892e21eb2b66c15cc7038576cf7a9cea35844f92af3aeExecute Meta Tra...204606622021-10-21 18:33:5718 hrs 50 mins ago0x6f78edb81c80a62cafb51a60a1ae7454e7df566aOUT 0x1e292d4e2d9afc4d29ca184b391e418b690283470 MATIC0.0035401
0x0ba60cff69edb2ef165e48641d445c66a8922b24dbd0ae1d83ef83561e82c799Execute Meta Tra...204602512021-10-21 18:17:4319 hrs 6 mins ago0x6f78edb81c80a62cafb51a60a1ae7454e7df566aOUT 0x1e292d4e2d9afc4d29ca184b391e418b690283470 MATIC0.0035401
0xae140061678f38be0dae904c74e2a0a03c4834c918d5f8e46c60a119323dec66Execute Meta Tra...204601562021-10-21 18:14:2519 hrs 9 mins ago0x6f78edb81c80a62cafb51a60a1ae7454e7df566aOUT 0x1e292d4e2d9afc4d29ca184b391e418b690283470 MATIC0.0027889
0xf67e5aacbc55403047a8854eb434a60a22545c353ed5e119a30629ade603a4e7Execute Meta Tra...204600712021-10-21 18:11:3119 hrs 12 mins ago0x6f78edb81c80a62cafb51a60a1ae7454e7df566aOUT 0x1e292d4e2d9afc4d29ca184b391e418b690283470 MATIC0.0043951
0x5f36ba949cfe430accf404eca55b5d11cf7f2e78febedacc373f7b307beaef04Execute Meta Tra...204589882021-10-21 17:29:4719 hrs 54 mins ago0x6f78edb81c80a62cafb51a60a1ae7454e7df566aOUT 0x1e292d4e2d9afc4d29ca184b391e418b690283470 MATIC0.0036451
[ Download CSV Export 
Parent Txn Hash Block From To Value
Loading

Contract Name:
0 MATIC

Compiler Version
0

Optimization Enabled:
0 MATIC

Other Settings:
-NA-
Block Transaction Gas Used Reward
Age Block Fee Address BC Fee Address Voting Power Jailed Incoming
Block Uncle Number Difficulty Gas Used Reward
Loading
Loading
Make sure to use the "Vote Down" button for any spammy posts, and the "Vote Up" for interesting conversations.